Weather in Iy

Russia / Tyva Republic     52°34′11″N   96°02′05″E
temp.,
°C
wind,
m/s
gust,
m/s
humid.,
%
clouds,
%
prec.,
mm/h
press.,
hPa
HPBL,
m
5 march, fri
fri501:00−19ese11960 0.0 103320
04:00−20ese12990 0.0 103320
07:00−22ese119614 0.0 103220
10:00−15ese238748 0.0 1027233
13:00−9ese128257 0.0 1023344
16:00−6nne008395 0.0 1020299
19:00−9wsw008997 0.0 102421
22:00−9wnw2291100 0.0 102736
6 march, sat
sat601:00−12sw128990 0.0 103221
04:00−13s129364 0.0 103420
07:00−15se229359 0.0 103527
10:00−10se128778 0.0 1031189
13:00−4se128674 0.0 1027378
16:00−2se128374 0.0 1023467
19:00−8wnw019164 0.0 102521
22:00−10s119178 0.0 102521
7 march, sun
sun701:00−11sse118584 0.0 102521
04:00−14sse118650 0.0 102420
07:00−15sse119060 0.0 102620
10:00−8ese118789 0.0 1023176
13:00−3ese118495 0.0 1022371
16:00−2ene0185100 0.0 1021355
19:00−6wsw0193100 0.0 102421
22:00−7w1193100 0.0 102621
8 march, mon
mon801:00−9sw119298 0.0 102721
04:00−11s128695 0.0 102821
07:00−13sse128396 0.0 103021
10:00−8ese128562 0.0 1026185
13:00−3ese228358 0.0 1022382
16:00−1ese128867 0.0 1020368
19:00−7s119441 0.0 102221
22:00−10s11921 0.0 102321
9 march, tue
tue901:00−11sse128950 0.0 102321
04:00−11w1188100 0.0 102421
07:00−10ssw1186100 0.0 102721
10:00−5sse1187100 0.1 1027194
13:00−2sse228893 0.1 1026395
16:000wnw028084 0.1 1025758
19:00−7se129159 0.1 102821
22:00−9ssw119225 0.0 102921